FW7317 Weather Reports


Display with metric or nautical units.
time (UTC)temp
F
wind
direction
speed
MPH
gust
MPH
rain 1hr
in
rain 24hr
in
rain mn
in
humidity
%
barometer
mb
20260906024032 76 0 0.0 0.0 0.00 0.54 0.54 90 1014.1
20260906023532 76 0 0.0 0.0 0.00 0.54 0.54 90 1013.9
20260906023053 76 0 0.0 0.0 0.00 0.54 0.54 91 1013.6
20260906022532 76 0 0.0 0.0 0.00 0.54 0.54 90 1013.6
20260906022033 76 0 0.0 0.0 0.00 0.54 0.54 90 1013.5
20260906021551 76 0 0.0 0.0 0.00 0.54 0.54 89 1013.5
20260906021032 77 0 0.0 0.0 0.00 0.54 0.54 88 1013.4
20260906020533 76 0 0.0 3.0 0.00 0.54 0.54 88 1013.3
20260906020051 77 0 0.0 3.0 0.00 0.54 0.54 88 1013.4
20260906015532 76 0 0.0 3.0 0.00 0.54 0.54 89 1013.4
20260906015033 76 0 0.0 3.0 0.00 0.54 0.54 90 1013.4
20260906014600 76 0 0.0 4.0 0.00 0.54 0.54 89 1013.6
20260906014033 76 0 0.0 4.0 0.00 0.54 0.54 89 1013.6
20260906013530 75 259 0.0 4.0 0.00 0.54 0.54 91 1013.4
20260906013051 76 0 0.0 0.0 0.00 0.54 0.54 90 1013.4
20260906012531 76 0 0.0 4.0 0.00 0.54 0.54 91 1013.6
20260906012029 76 0 0.0 5.0 0.00 0.54 0.54 90 1013.5
20260906011549 76 244 0.0 5.0 0.00 0.54 0.54 89 1013.5
20260906011032 75 0 0.0 5.0 0.00 0.54 0.54 91 1013.3
20260906010532 75 0 0.0 0.0 0.00 0.54 0.54 93 1013.3
20260906010054 75 0 0.0 0.0 0.00 0.54 0.54 92 1013.3
20260906005532 75 0 0.0 0.0 0.00 0.54 0.54 92 1013.4
20260906005033 75 0 0.0 0.0 0.00 0.54 0.54 92 1013.4
20260906004554 76 0 0.0 0.0 0.00 0.54 0.54 91 1013.2
20260906004033 76 0 0.0 0.0 0.00 0.54 0.54 91 1013.2
20260906003530 76 0 0.0 0.0 0.00 0.54 0.54 91 1013.3
20260906003109 76 0 0.0 0.0 0.00 0.54 0.54 91 1013.2
20260906002528 76 0 0.0 0.0 0.00 0.54 0.54 90 1013.2
20260906002029 76 0 0.0 0.0 0.00 0.54 0.54 90 1013.0
20260906001549 76 0 0.0 0.0 0.00 0.54 0.54 90 1013.0
20260906001034 76 0 0.0 0.0 0.00 0.54 0.54 90 1012.9
20260906000532 77 0 0.0 0.0 0.00 0.54 0.54 91 1012.8
20260906000059 77 0 0.0 0.0 0.00 0.54 0.54 91 1012.9
20260905235532 77 0 0.0 0.0 0.00 0.54 0.54 90 1012.7
20260905235032 77 0 0.0 0.0 0.00 0.54 0.54 90 1012.7
20260905234606 77 0 0.0 0.0 0.00 0.54 0.54 88 1012.6
20260905234033 77 0 0.0 0.0 0.00 0.54 0.54 90 1012.6
20260905233529 77 0 0.0 0.0 0.00 0.54 0.54 89 1012.5
20260905233050 77 0 0.0 0.0 0.00 0.54 0.54 92 1012.5
20260905232532 77 0 0.0 0.0 0.00 0.54 0.54 92 1012.4
20260905232033 77 0 0.0 3.0 0.00 0.54 0.54 92 1012.5
20260905231549 77 0 0.0 3.0 0.00 0.54 0.54 92 1012.5
20260905231032 78 0 0.0 0.0 0.00 0.54 0.54 91 1012.4
20260905230532 78 0 0.0 0.0 0.00 0.54 0.54 90 1012.4
20260905230052 78 0 0.0 0.0 0.00 0.54 0.54 90 1012.3
20260905225532 78 0 0.0 0.0 0.00 0.54 0.54 89 1012.3
20260905225031 79 0 0.0 0.0 0.00 0.54 0.54 87 1012.4
20260905224550 79 0 0.0 0.0 0.00 0.54 0.54 87 1012.4
20260905224033 79 0 0.0 0.0 0.00 0.54 0.54 88 1012.5
20260905223532 80 0 0.0 0.0 0.00 0.54 0.54 86 1012.6
20260905223049 80 0 0.0 0.0 0.00 0.54 0.54 84 1012.5
20260905222533 80 0 0.0 0.0 0.00 0.54 0.54 85 1012.4
20260905222032 80 0 0.0 0.0 0.00 0.54 0.54 84 1012.5
20260905221555 80 0 0.0 0.0 0.00 0.54 0.54 87 1012.5
20260905221029 80 0 0.0 1.0 0.00 0.54 0.54 85 1012.5
20260905220530 80 0 0.0 4.0 0.00 0.54 0.54 83 1012.4
20260905220050 80 0 0.0 4.0 0.00 0.54 0.54 84 1012.5
20260905215532 79 0 0.0 0.0 0.00 0.54 0.54 82 1012.7
20260905215036 78 0 0.0 0.0 0.00 0.54 0.54 84 1012.7
20260905214557 78 0 0.0 0.0 0.00 0.54 0.54 86 1012.8
20260905214032 78 0 0.0 0.0 0.00 0.54 0.54 88 1012.9
20260905213531 78 0 0.0 3.0 0.00 0.54 0.54 89 1013.0
20260905213057 77 0 0.0 3.0 0.00 0.54 0.54 89 1013.1
20260905212531 76 47 0.0 3.0 0.00 0.54 0.54 87 1013.1
20260905212028 76 0 0.0 0.0 0.00 0.54 0.54 92 1013.1
20260905211551 77 0 0.0 0.0 0.00 0.54 0.54 90 1013.2
20260905211033 77 0 0.0 2.0 0.00 0.54 0.54 88 1013.3
20260905210534 77 0 0.0 2.0 0.00 0.54 0.54 86 1013.2
20260905210059 77 0 0.0 2.0 0.00 0.54 0.54 90 1013.3
20260905205532 78 0 0.0 2.0 0.00 0.54 0.54 90 1013.1
20260905205032 78 0 0.0 2.0 0.00 0.54 0.54 88 1013.2
20260905204601 77 0 0.0 6.0 0.00 0.54 0.54 89 1013.5
20260905204032 78 0 0.0 7.0 0.00 0.54 0.54 88 1013.4
20260905203534 78 0 1.0 7.0 0.00 0.54 0.54 86 1013.5
20260905203057 78 0 1.0 4.0 0.00 0.54 0.54 82 1013.5
20260905202531 78 251 0.0 5.0 0.00 0.54 0.54 88 1013.4
20260905202029 78 0 0.0 5.0 0.00 0.54 0.54 88 1013.5
20260905201551 78 0 0.0 8.0 0.00 0.54 0.54 88 1013.7
20260905201031 77 0 0.0 8.0 0.00 0.54 0.54 90 1013.8
20260905200533 76 267 1.0 8.0 0.00 0.54 0.54 91 1013.9
20260905200056 76 0 1.0 8.0 0.01 0.54 0.54 94 1014.0
20260905195532 75 203 0.0 8.0 0.02 0.54 0.54 96 1014.0
20260905195032 75 0 0.0 0.0 0.02 0.54 0.54 97 1013.7
20260905194558 75 0 0.0 6.0 0.09 0.54 0.54 98 1013.5
20260905194036 74 0 1.0 6.0 0.28 0.54 0.54 98 1013.5
20260905193531 73 0 0.0 0.0 0.39 0.54 0.54 98 1013.7
20260905193107 73 0 0.0 0.0 0.50 0.54 0.54 98 1013.8
20260905192532 72 0 0.0 0.0 0.52 0.54 0.54 97 1014.0
20260905192031 72 0 0.0 0.0 0.54 0.54 0.54 97 1014.1
20260905191557 71 0 0.0 0.0 0.54 0.54 0.54 97 1014.2
20260905191031 70 0 0.0 0.0 0.54 0.54 0.54 97 1014.2
20260905190529 69 0 0.0 0.0 0.54 0.54 0.54 96 1013.9
20260905190050 69 0 0.0 2.0 0.52 0.52 0.52 95 1014.1
20260905185530 69 0 0.0 5.0 0.52 0.52 0.52 94 1015.3
20260905185034 70 0 0.0 11.0 0.52 0.52 0.52 92 1016.2
20260905184557 71 0 3.0 29.0 0.44 0.44 0.44 90 1016.8
20260905184031 73 204 4.0 29.0 0.25 0.25 0.25 88 1017.6
20260905183531 75 78 6.0 29.0 0.14 0.14 0.14 82 1016.5
20260905183056 78 195 3.0 14.0 0.03 0.03 0.03 75 1015.3
20260905182529 82 26 5.0 14.0 0.01 0.01 0.01 68 1014.7
20260905182032 86 57 1.0 7.0 0.00 0.00 0.00 72 1014.2
20260905181549 87 0 0.0 0.0 0.00 0.00 0.00 79 1013.8
20260905181031 88 0 0.0 0.0 0.00 0.00 0.00 80 1013.4
20260905180531 89 0 0.0 0.0 0.00 0.00 0.00 77 1013.4
20260905180059 89 0 0.0 0.0 0.00 0.00 0.00 77 1013.8
20260905175530 90 0 0.0 0.0 0.00 0.00 0.00 76 1013.8
20260905175031 91 0 0.0 0.0 0.00 0.00 0.00 75 1013.9
20260905174551 91 0 0.0 0.0 0.00 0.00 0.00 73 1013.9
20260905174029 92 0 0.0 0.0 0.00 0.00 0.00 73 1013.9
20260905173530 92 0 0.0 4.0 0.00 0.00 0.00 73 1014.0
20260905173051 93 0 0.0 4.0 0.00 0.00 0.00 70 1014.1
20260905172532 94 0 1.0 4.0 0.00 0.00 0.00 63 1014.0
20260905172031 94 0 0.0 0.0 0.00 0.00 0.00 67 1014.1
20260905171547 93 0 0.0 0.0 0.00 0.00 0.00 66 1014.2
20260905171030 93 0 0.0 0.0 0.00 0.00 0.00 68 1014.1
20260905170532 93 0 0.0 0.0 0.00 0.00 0.00 69 1014.2
20260905170056 93 0 0.0 0.0 0.00 0.00 0.00 71 1014.2
20260905165537 92 0 0.0 0.0 0.00 0.00 0.00 69 1014.3
20260905165038 92 0 0.0 3.0 0.00 0.00 0.00 67 1014.4
20260905164550 92 0 0.0 3.0 0.00 0.00 0.00 68 1014.4
20260905164033 92 0 1.0 3.0 0.00 0.00 0.00 68 1014.5
20260905163534 92 0 0.0 3.0 0.00 0.00 0.00 68 1014.6
20260905163057 92 0 0.0 3.0 0.00 0.00 0.00 69 1014.7
20260905162531 92 0 0.0 2.0 0.00 0.00 0.00 67 1014.9
20260905162033 92 0 0.0 3.0 0.00 0.00 0.00 66 1015.0
20260905161554 92 0 0.0 3.0 0.00 0.00 0.00 70 1015.0
20260905161035 92 0 0.0 0.0 0.00 0.00 0.00 68 1015.1
20260905160533 91 0 0.0 0.0 0.00 0.00 0.00 69 1015.0
20260905160052 91 0 0.0 0.0 0.00 0.00 0.00 67 1015.1
20260905155537 91 0 0.0 0.0 0.00 0.00 0.00 69 1015.1
20260905155033 90 0 0.0 0.0 0.00 0.00 0.00 74 1015.1
20260905154602 90 0 0.0 0.0 0.00 0.00 0.00 69 1015.1
20260905154033 90 0 0.0 0.0 0.00 0.00 0.00 73 1015.2
20260905153536 90 0 0.0 0.0 0.00 0.00 0.00 69 1015.2
20260905153056 89 0 0.0 0.0 0.00 0.00 0.00 72 1015.2
20260905152532 89 0 0.0 0.0 0.00 0.00 0.00 72 1015.2
20260905152032 88 0 0.0 3.0 0.00 0.00 0.00 74 1015.2
20260905151555 88 0 0.0 6.0 0.00 0.00 0.00 73 1015.2
20260905151033 88 0 0.0 6.0 0.00 0.00 0.00 75 1015.2
20260905150536 88 0 0.0 4.0 0.00 0.00 0.00 74 1015.1
20260905150056 87 0 0.0 7.0 0.00 0.00 0.00 74 1015.2
20260905145534 87 247 1.0 7.0 0.00 0.00 0.00 75 1015.2
20260905145031 87 0 1.0 7.0 0.00 0.00 0.00 75 1015.2
20260905144552 86 0 0.0 6.0 0.00 0.00 0.00 76 1015.3
20260905144032 86 0 1.0 7.0 0.00 0.00 0.00 76 1015.2
20260905143532 86 0 2.0 7.0 0.00 0.00 0.00 75 1015.3
20260905143058 86 0 0.0 5.0 0.00 0.00 0.00 78 1015.3
20260905142532 85 0 0.0 5.0 0.00 0.00 0.00 77 1015.3
20260905142035 85 0 0.0 5.0 0.00 0.00 0.00 77 1015.3
20260905141552 84 0 0.0 4.0 0.00 0.00 0.00 78 1015.3
20260905141035 84 0 0.0 4.0 0.00 0.00 0.00 78 1015.3
20260905140534 84 0 0.0 5.0 0.00 0.00 0.00 79 1015.3
20260905140049 83 0 0.0 6.0 0.00 0.00 0.00 80 1015.3
20260905135558 83 0 2.0 6.0 0.00 0.00 0.00 79 1015.4
20260905135031 83 0 1.0 6.0 0.00 0.00 0.00 79 1015.4
20260905134600 82 233 0.0 5.0 0.00 0.00 0.00 81 1015.4
20260905134028 82 0 0.0 5.0 0.00 0.00 0.00 81 1015.5
20260905133534 82 0 1.0 7.0 0.00 0.00 0.00 81 1015.6
20260905133052 81 0 0.0 7.0 0.00 0.00 0.00 83 1015.7
20260905132532 81 207 1.0 7.0 0.00 0.00 0.00 82 1015.6
20260905132038 81 0 0.0 7.0 0.00 0.00 0.00 82 1015.7
20260905131552 80 261 0.0 6.0 0.00 0.00 0.00 82 1015.7
20260905131033 80 275 1.0 6.0 0.00 0.00 0.00 82 1015.8
20260905130531 80 0 0.0 7.0 0.00 0.00 0.00 83 1015.7
20260905130057 80 0 2.0 7.0 0.00 0.00 0.00 83 1015.7
20260905125531 79 340 0.0 8.0 0.00 0.00 0.00 83 1015.7
20260905125031 79 250 2.0 9.0 0.00 0.00 0.00 83 1015.7
20260905124555 79 284 3.0 10.0 0.00 0.00 0.00 83 1015.6
20260905124037 79 265 2.0 10.0 0.00 0.00 0.00 84 1015.7
20260905123533 79 182 3.0 10.0 0.00 0.00 0.00 83 1015.6
20260905123049 79 311 2.0 9.0 0.00 0.00 0.00 83 1015.4
20260905122528 79 285 0.0 8.0 0.00 0.00 0.00 83 1015.4
20260905122029 79 284 2.0 8.0 0.00 0.00 0.00 83 1015.5
20260905121547 79 204 1.0 7.0 0.00 0.00 0.00 83 1015.4
20260905121032 78 0 1.0 7.0 0.00 0.00 0.00 83 1015.4
20260905120531 78 287 3.0 8.0 0.00 0.00 0.00 83 1015.3
20260905120056 78 201 1.0 8.0 0.00 0.00 0.00 84 1015.3
20260905115536 78 286 1.0 8.0 0.00 0.00 0.00 84 1015.2
20260905115032 78 0 1.0 5.0 0.00 0.00 0.00 85 1015.1
20260905114551 77 217 0.0 4.0 0.00 0.00 0.00 85 1015.2
20260905114031 77 215 0.0 1.0 0.00 0.00 0.00 86 1015.1
20260905113533 77 0 0.0 0.0 0.00 0.00 0.00 87 1014.9
20260905113050 77 0 0.0 0.0 0.00 0.00 0.00 86 1015.0
20260905112529 78 0 0.0 0.0 0.00 0.00 0.00 85 1014.8
20260905112031 78 0 0.0 0.0 0.00 0.00 0.00 84 1014.8
20260905111637 78 0 0.0 0.0 0.00 0.00 0.00 84 1014.6
20260905111034 78 0 0.0 0.0 0.00 0.00 0.00 84 1014.5
20260905110528 78 0 0.0 0.0 0.00 0.00 0.00 85 1014.5
20260905110050 78 0 0.0 0.0 0.00 0.00 0.00 85 1014.5
20260905105532 78 0 0.0 0.0 0.00 0.00 0.00 84 1014.3
20260905105028 78 0 0.0 0.0 0.00 0.00 0.00 83 1014.3
20260905104549 78 0 0.0 0.0 0.00 0.00 0.00 83 1014.1
20260905104031 79 0 0.0 0.0 0.00 0.00 0.00 83 1014.1
20260905103532 79 0 0.0 0.0 0.00 0.00 0.00 83 1014.1
20260905103050 79 0 0.0 5.0 0.00 0.00 0.00 83 1014.2
20260905102532 79 0 0.0 5.0 0.00 0.00 0.00 84 1014.2
20260905102030 79 287 2.0 5.0 0.00 0.00 0.00 84 1014.1
20260905101556 79 158 0.0 10.0 0.00 0.00 0.00 84 1014.2
20260905101029 79 0 1.0 10.0 0.00 0.00 0.00 84 1014.1
20260905100532 78 302 0.0 8.0 0.00 0.00 0.00 84 1014.1
20260905100108 78 0 0.0 5.0 0.00 0.00 0.00 84 1014.1
20260905095528 78 0 1.0 7.0 0.00 0.00 0.00 85 1014.0
20260905095031 78 244 2.0 7.0 0.00 0.00 0.00 85 1014.0
20260905094559 78 0 0.0 7.0 0.00 0.00 0.00 85 1014.1
20260905094034 78 0 1.0 7.0 0.00 0.00 0.00 85 1014.1
20260905093529 78 0 1.0 5.0 0.00 0.00 0.00 85 1014.1
20260905093100 78 0 0.0 3.0 0.00 0.00 0.00 85 1014.1
20260905092528 78 0 0.0 5.0 0.00 0.00 0.00 85 1014.2
20260905092030 78 0 0.0 6.0 0.00 0.00 0.00 85 1014.2
20260905091600 78 0 0.0 7.0 0.00 0.00 0.00 85 1014.1
20260905091030 79 0 1.0 7.0 0.00 0.00 0.00 85 1014.2
20260905090529 79 0 0.0 4.0 0.00 0.00 0.00 85 1014.1
20260905090049 79 226 1.0 6.0 0.00 0.00 0.00 85 1014.1
20260905085533 79 0 2.0 6.0 0.00 0.00 0.00 85 1014.2
20260905085034 79 255 2.0 7.0 0.00 0.00 0.00 84 1014.1
20260905084558 79 0 1.0 7.0 0.00 0.00 0.00 84 1014.3
20260905084031 79 283 2.0 8.0 0.00 0.00 0.00 84 1014.3
20260905083530 79 294 0.0 8.0 0.00 0.00 0.00 84 1014.4
20260905083053 79 244 1.0 8.0 0.00 0.00 0.00 84 1014.5
20260905082531 79 227 0.0 5.0 0.00 0.00 0.00 84 1014.5
20260905082032 79 29 0.0 5.0 0.00 0.00 0.00 85 1014.5
20260905081555 78 311 0.0 5.0 0.00 0.00 0.00 85 1014.6
20260905081029 78 0 0.0 5.0 0.00 0.00 0.00 86 1014.6
20260905080530 77 0 0.0 4.0 0.00 0.00 0.00 87 1014.7
20260905080056 76 0 0.0 2.0 0.00 0.00 0.00 89 1014.9
20260905075533 75 0 0.0 2.0 0.00 0.00 0.00 91 1014.9
20260905075030 75 0 0.0 1.0 0.00 0.00 0.00 93 1014.8
20260905074548 75 0 0.0 0.0 0.00 0.00 0.00 93 1014.8
20260905074033 74 0 0.0 0.0 0.00 0.00 0.00 94 1014.8
20260905073533 74 0 0.0 0.0 0.00 0.00 0.00 94 1014.9
20260905073052 75 0 0.0 0.0 0.00 0.00 0.00 93 1015.0
20260905072532 75 0 0.0 0.0 0.00 0.00 0.00 93 1015.0
20260905072029 75 0 0.0 0.0 0.00 0.00 0.00 93 1015.1
20260905071555 75 0 0.0 0.0 0.00 0.00 0.00 93 1015.0
20260905071033 75 0 0.0 0.0 0.00 0.00 0.00 93 1015.0
20260905070531 75 0 0.0 0.0 0.00 0.00 0.00 93 1015.0
20260905070049 75 0 0.0 0.0 0.00 0.00 0.00 93 1015.0
20260905065534 75 0 0.0 3.0 0.00 0.00 0.00 94 1015.1
20260905065033 75 0 0.0 3.0 0.00 0.00 0.00 94 1015.1
20260905064600 75 0 0.0 0.0 0.00 0.00 0.00 94 1015.1
20260905064033 74 0 0.0 1.0 0.00 0.00 0.00 94 1015.3
20260905063530 74 0 0.0 1.0 0.00 0.00 0.00 94 1015.4
20260905063100 74 0 0.0 3.0 0.00 0.00 0.00 95 1015.4
20260905062532 74 0 0.0 3.0 0.00 0.00 0.00 95 1015.5
20260905062032 73 0 0.0 3.0 0.00 0.00 0.00 96 1015.5
20260905061609 73 0 0.0 0.0 0.00 0.00 0.00 96 1015.6
20260905061035 73 0 0.0 0.0 0.00 0.00 0.00 96 1015.5
20260905060532 73 0 0.0 0.0 0.00 0.00 0.00 96 1015.6
20260905060049 73 0 0.0 0.0 0.00 0.00 0.00 96 1015.6
20260905055533 73 0 0.0 0.0 0.00 0.00 0.00 96 1015.8
20260905055037 73 0 0.0 0.0 0.00 0.00 0.00 96 1015.8
20260905054556 73 0 0.0 0.0 0.00 0.00 0.00 96 1016.0
20260905054033 73 0 0.0 0.0 0.00 0.00 0.00 95 1016.0
20260905053533 74 0 0.0 0.0 0.00 0.00 0.00 95 1016.0
20260905053058 74 0 0.0 0.0 0.00 0.00 0.00 95 1015.9
20260905052532 74 0 0.0 0.0 0.00 0.00 0.00 95 1015.9
20260905052033 74 0 0.0 0.0 0.00 0.00 0.00 95 1015.9
20260905051551 74 0 0.0 0.0 0.00 0.00 0.00 95 1016.1
20260905051032 74 0 0.0 0.0 0.00 0.00 0.00 95 1016.0
20260905050531 74 0 0.0 0.0 0.00 0.00 0.00 95 1016.0
20260905050049 74 0 0.0 0.0 0.00 0.00 0.00 95 1015.9
20260905045533 74 0 0.0 0.0 0.00 0.00 0.00 95 1015.8
20260905045033 74 0 0.0 0.0 0.00 0.00 0.00 95 1015.8
20260905044604 74 0 0.0 0.0 0.00 0.00 0.00 95 1015.8
20260905044033 74 0 0.0 0.0 0.00 0.00 0.00 95 1015.9
20260905043533 74 0 0.0 0.0 0.00 0.00 0.00 95 1015.8
20260905043052 74 0 0.0 0.0 0.00 0.00 0.00 95 1015.7
20260905042535 74 0 0.0 0.0 0.00 0.00 0.00 95 1015.7
20260905042033 74 0 0.0 0.0 0.00 0.00 0.00 95 1015.6
20260905041552 74 0 0.0 0.0 0.00 0.00 0.00 95 1015.6
20260905041032 74 0 0.0 0.0 0.00 0.00 0.00 95 1015.7
20260905040532 75 0 0.0 0.0 0.00 0.00 0.00 95 1015.8
20260905040050 75 0 0.0 0.0 0.00 0.00 0.00 95 1015.8
20260905035532 75 0 0.0 0.0 0.00 0.00 0.00 94 1015.7
20260905035032 75 0 0.0 0.0 0.00 0.00 0.00 94 1015.9
20260905034558 75 0 0.0 0.0 0.00 0.00 0.00 94 1015.7
20260905034034 75 0 0.0 0.0 0.00 0.00 0.00 94 1015.5
20260905033534 75 0 0.0 0.0 0.00 0.00 0.00 94 1015.5
20260905033104 75 0 0.0 0.0 0.00 0.00 0.00 94 1015.7
20260905032532 75 0 0.0 0.0 0.00 0.00 0.00 94 1015.8
20260905032032 75 0 0.0 0.0 0.00 0.00 0.00 94 1015.8
20260905031549 75 0 0.0 0.0 0.00 0.00 0.00 94 1016.0
20260905031033 75 0 0.0 0.0 0.00 0.00 0.00 94 1015.7
20260905030536 75 0 0.0 0.0 0.00 0.00 0.00 94 1015.8
20260905030121 75 0 0.0 0.0 0.00 0.00 0.00 94 1016.0
20260905025531 76 0 0.0 0.0 0.00 0.00 0.00 94 1016.1
20260905025031 76 0 0.0 0.0 0.00 0.00 0.00 94 1016.2
20260905024552 76 0 0.0 0.0 0.00 0.00 0.00 93 1016.2